When you browse on this site, cookies collect data to enhance your experience and personalize the content and advertising you see.
Visit our Privacy Policy to learn more. By continuing to use the site, you agree to this use of cookies and data.
  • In Austria
  • List of Countries
  • For 7 days
  • Water Temperature
  • Weather Map
  • News
  • Weather Widgets
  • user-avatar
    Login

    Hourly Weather Sutatausa

    Today, 12 December, Thursday

    Time Temperature Precipitation Wind Pressure Humidity
    00:00 +9°C° 0 mm 0 mps 546 mmHg 94%
    01:00 +8°C° 0 mm 0 mps 546 mmHg 94%
    02:00 +8°C° 0 mm 0 mps 545 mmHg 94%
    03:00 +8°C° 0 mm 0 mps 545 mmHg 93%
    04:00 +8°C° 0 mm 0 mps 545 mmHg 93%
    05:00 +8°C° 0 mm 0 mps 546 mmHg 92%
    06:00 +9°C° 0 mm 0 mps 546 mmHg 91%
    07:00 +10°C° 0 mm 0 mps 547 mmHg 91%
    08:00 +12°C° 0 mm 0 mps 548 mmHg 84%
    09:00 +15°C° 0 mm 1 mps 550 mmHg 76%
    10:00 +18°C° 0 mm 1 mps 551 mmHg 69%
    11:00 +18°C° 0.7 mm 1 mps 550 mmHg 73%
    12:00 +18°C° 0.7 mm 1 mps 549 mmHg 78%
    13:00 +18°C° 0.7 mm 1 mps 549 mmHg 82%
    14:00 +16°C° 0.9 mm 1 mps 548 mmHg 84%
    15:00 +16°C° 0.9 mm 1 mps 547 mmHg 86%
    16:00 +15°C° 0.9 mm 1 mps 547 mmHg 88%
    17:00 +14°C° 0.3 mm 1 mps 546 mmHg 91%
    18:00 +12°C° 0.3 mm 1 mps 546 mmHg 94%
    19:00 +10°C° 0.3 mm 1 mps 545 mmHg 97%
    20:00 +10°C° 0 mm 1 mps 546 mmHg 96%
    21:00 +10°C° 0 mm 1 mps 546 mmHg 95%
    22:00 +9°C° 0 mm 1 mps 546 mmHg 94%
    23:00 +8°C° 0 mm 0 mps 546 mmHg 93%

    Tomorrow, 13 December, Friday

    Time Temperature Precipitation Wind Pressure Humidity
    00:00 +8°C° 0 mm 0 mps 545 mmHg 93%
    01:00 +7°C° 0 mm 0 mps 545 mmHg 92%
    02:00 +7°C° 0 mm 0 mps 545 mmHg 92%
    03:00 +7°C° 0 mm 0 mps 545 mmHg 92%
    04:00 +8°C° 0 mm 1 mps 544 mmHg 92%
    05:00 +8°C° 0 mm 0 mps 545 mmHg 91%
    06:00 +8°C° 0 mm 0 mps 546 mmHg 89%
    07:00 +9°C° 0 mm 0 mps 547 mmHg 87%
    08:00 +12°C° 0 mm 0 mps 548 mmHg 80%
    09:00 +14°C° 0 mm 0 mps 550 mmHg 72%
    10:00 +18°C° 0 mm 1 mps 551 mmHg 65%
    11:00 +18°C° 0.3 mm 1 mps 550 mmHg 68%
    12:00 +18°C° 0.3 mm 1 mps 550 mmHg 71%
    13:00 +17°C° 0.3 mm 2 mps 549 mmHg 74%
    14:00 +16°C° 0.7 mm 1 mps 548 mmHg 80%
    15:00 +15°C° 0.7 mm 1 mps 547 mmHg 85%
    16:00 +14°C° 0.7 mm 1 mps 547 mmHg 91%
    17:00 +13°C° 0.3 mm 1 mps 547 mmHg 93%
    18:00 +12°C° 0.3 mm 1 mps 546 mmHg 95%
    19:00 +10°C° 0.3 mm 0 mps 546 mmHg 97%
    20:00 +10°C° 0.1 mm 0 mps 546 mmHg 97%
    21:00 +9°C° 0.1 mm 0 mps 546 mmHg 97%
    22:00 +9°C° 0.1 mm 1 mps 546 mmHg 96%
    23:00 +8°C° 0 mm 0 mps 546 mmHg 95%

    Day after tomorrow, 14 December, Saturday

    Time Temperature Precipitation Wind Pressure Humidity
    00:00 +8°C° 0 mm 0 mps 546 mmHg 95%
    01:00 +8°C° 0 mm 0 mps 545 mmHg 94%
    02:00 +8°C° 0 mm 0 mps 545 mmHg 93%
    03:00 +8°C° 0 mm 0 mps 545 mmHg 93%
    04:00 +8°C° 0 mm 0 mps 545 mmHg 93%
    05:00 +8°C° 0 mm 0 mps 546 mmHg 91%
    06:00 +9°C° 0 mm 0 mps 547 mmHg 90%
    07:00 +10°C° 0 mm 0 mps 548 mmHg 89%
    08:00 +12°C° 0 mm 0 mps 549 mmHg 81%
    09:00 +14°C° 0 mm 0 mps 550 mmHg 74%
    10:00 +18°C° 0 mm 1 mps 551 mmHg 66%
    11:00 +18°C° 0.3 mm 1 mps 551 mmHg 68%
    12:00 +18°C° 0.3 mm 1 mps 550 mmHg 71%
    13:00 +18°C° 0.3 mm 1 mps 549 mmHg 73%
    14:00 +16°C° 0.9 mm 1 mps 549 mmHg 79%
    15:00 +15°C° 0.9 mm 1 mps 548 mmHg 86%
    16:00 +14°C° 0.9 mm 1 mps 547 mmHg 92%
    17:00 +14°C° 0.5 mm 1 mps 547 mmHg 94%
    18:00 +13°C° 0.5 mm 1 mps 547 mmHg 96%
    19:00 +12°C° 0.5 mm 1 mps 547 mmHg 98%
    20:00 +10°C° 0.3 mm 0 mps 547 mmHg 97%
    21:00 +10°C° 0.3 mm 0 mps 547 mmHg 97%
    22:00 +10°C° 0.3 mm 0 mps 548 mmHg 96%
    23:00 +9°C° 0.1 mm 0 mps 547 mmHg 96%

    15 December, Sunday

    Time Temperature Precipitation Wind Pressure Humidity
    00:00 +9°C° 0.1 mm 0 mps 547 mmHg 96%
    01:00 +9°C° 0.1 mm 0 mps 547 mmHg 96%
    02:00 +9°C° 0 mm 0 mps 546 mmHg 96%
    03:00 +9°C° 0 mm 0 mps 546 mmHg 95%
    04:00 +8°C° 0 mm 0 mps 546 mmHg 95%
    05:00 +9°C° 0 mm 0 mps 547 mmHg 94%
    06:00 +10°C° 0 mm 0 mps 548 mmHg 93%
    07:00 +10°C° 0 mm 0 mps 548 mmHg 92%
    08:00 +12°C° 0.2 mm 0 mps 549 mmHg 88%
    09:00 +15°C° 0.2 mm 1 mps 550 mmHg 84%
    10:00 +16°C° 0.2 mm 1 mps 551 mmHg 80%
    11:00 +16°C° 0.8 mm 1 mps 551 mmHg 84%
    12:00 +15°C° 0.8 mm 1 mps 550 mmHg 87%
    13:00 +15°C° 0.8 mm 1 mps 549 mmHg 90%
    14:00 +15°C° 1.1 mm 1 mps 548 mmHg 91%
    15:00 +14°C° 1.1 mm 1 mps 548 mmHg 92%
    16:00 +14°C° 1.1 mm 1 mps 547 mmHg 93%
    17:00 +13°C° 0.6 mm 0 mps 547 mmHg 95%
    18:00 +12°C° 0.6 mm 0 mps 548 mmHg 96%
    19:00 +11°C° 0.6 mm 0 mps 548 mmHg 98%
    20:00 +11°C° 0.5 mm 0 mps 548 mmHg 98%
    21:00 +11°C° 0.5 mm 0 mps 548 mmHg 98%
    22:00 +10°C° 0.5 mm 0 mps 548 mmHg 98%
    23:00 +10°C° 0.9 mm 0 mps 548 mmHg 98%

    16 December, Monday

    Time Temperature Precipitation Wind Pressure Humidity
    00:00 +10°C° 0.9 mm 0 mps 548 mmHg 98%
    01:00 +10°C° 0.9 mm 0 mps 548 mmHg 98%
    02:00 +10°C° 0.4 mm 0 mps 547 mmHg 97%
    03:00 +10°C° 0.4 mm 0 mps 547 mmHg 97%
    04:00 +10°C° 0.4 mm 0 mps 547 mmHg 96%
    05:00 +10°C° 0 mm 0 mps 547 mmHg 96%
    06:00 +10°C° 0 mm 0 mps 548 mmHg 95%
    07:00 +11°C° 0 mm 0 mps 548 mmHg 94%
    08:00 +12°C° 0.1 mm 0 mps 549 mmHg 87%
    09:00 +15°C° 0.1 mm 1 mps 550 mmHg 81%
    10:00 +18°C° 0.1 mm 1 mps 551 mmHg 74%
    11:00 +18°C° 0.3 mm 1 mps 551 mmHg 72%
    12:00 +19°C° 0.3 mm 1 mps 551 mmHg 69%
    13:00 +19°C° 0.3 mm 1 mps 550 mmHg 66%
    14:00 +18°C° 0.5 mm 1 mps 549 mmHg 72%
    15:00 +18°C° 0.5 mm 1 mps 548 mmHg 77%
    16:00 +16°C° 0.5 mm 1 mps 548 mmHg 82%
    17:00 +14°C° 0.5 mm 1 mps 547 mmHg 87%
    18:00 +12°C° 0.5 mm 0 mps 547 mmHg 92%
    19:00 +10°C° 0.5 mm 0 mps 546 mmHg 97%
    20:00 +10°C° 0.3 mm 0 mps 547 mmHg 97%
    21:00 +10°C° 0.3 mm 0 mps 547 mmHg 97%
    22:00 +10°C° 0.3 mm 0 mps 548 mmHg 97%
    23:00 +10°C° 0.2 mm 0 mps 547 mmHg 97%

    17 December, Tuesday

    Time Temperature Precipitation Wind Pressure Humidity
    00:00 +10°C° 0.2 mm 0 mps 547 mmHg 97%
    01:00 +10°C° 0.2 mm 0 mps 547 mmHg 97%
    02:00 +10°C° 0.3 mm 0 mps 547 mmHg 96%
    03:00 +10°C° 0.3 mm 0 mps 546 mmHg 95%
    04:00 +9°C° 0.3 mm 0 mps 546 mmHg 95%
    05:00 +10°C° 0.1 mm 0 mps 547 mmHg 93%
    06:00 +10°C° 0.1 mm 0 mps 547 mmHg 91%
    07:00 +10°C° 0.1 mm 0 mps 548 mmHg 89%
    08:00 +14°C° 0 mm 1 mps 549 mmHg 79%
    09:00 +16°C° 0 mm 1 mps 550 mmHg 70%
    10:00 +19°C° 0 mm 1 mps 551 mmHg 61%
    11:00 +19°C° 0.2 mm 1 mps 551 mmHg 59%
    12:00 +19°C° 0.2 mm 2 mps 550 mmHg 58%
    13:00 +19°C° 0.2 mm 2 mps 550 mmHg 57%
    14:00 +18°C° 0.2 mm 2 mps 549 mmHg 61%
    15:00 +18°C° 0.2 mm 2 mps 548 mmHg 66%
    16:00 +17°C° 0.2 mm 2 mps 547 mmHg 70%
    17:00 +15°C° 0.2 mm 1 mps 547 mmHg 79%
    18:00 +13°C° 0.2 mm 1 mps 546 mmHg 87%
    19:00 +10°C° 0.2 mm 0 mps 546 mmHg 96%
    20:00 +10°C° 0.2 mm 0 mps 546 mmHg 96%
    21:00 +10°C° 0.2 mm 0 mps 546 mmHg 95%
    22:00 +10°C° 0.2 mm 1 mps 547 mmHg 95%
    23:00 +10°C° 0 mm 1 mps 546 mmHg 95%
    Show more